GFSCGP_sfc_30mbdewp_000.txt.gz
Dewpoint
24 21 17 16 18 15 13 12 11 13 15 16 14 14 16 17 18 17 17 18 19 19 21 21 21 21 23 25 26 24 23 28 32 33 31 30 30 29 30 29 28 27 28 27
23 20 20 19 19 18 18 16 15 17 18 18 17 16 17 17 17 17 17 17 17 17 17 18 19 21 23 23 24 24 23 25 29 30 29 29 29 29 28 30 27 26 26 26
19 17 23 22 20 18 18 17 16 16 18 18 17 14 15 16 17 18 18 18 18 17 17 18 19 21 22 24 24 24 23 23 26 27 27 25 25 25 26 27 26 24 24 25
22 23 21 22 19 19 15 17 17 17 16 12 17 9 10 11 11 12 13 14 14 15 17 18 18 19 21 22 25 24 23 22 24 26 26 24 24 23 25 25 26 25 23 23
16 18 19 19 18 20 16 18 17 17 17 16 16 13 11 12 11 11 11 12 14 13 14 14 15 16 19 22 24 24 23 22 23 25 25 23 23 23 23 24 25 25 22 22
22 22 20 18 19 20 20 18 19 20 17 11 13 12 10 9 10 9 10 10 12 15 16 16 18 19 20 24 24 23 22 22 23 24 24 23 22 22 21 22 23 23 22 21
19 18 21 20 18 20 20 17 11 9 13 9 14 13 10 10 12 12 12 11 14 17 17 16 19 21 21 22 22 22 22 22 22 23 23 23 22 21 20 21 22 22 21 20
22 25 20 20 18 16 18 16 12 10 11 13 15 14 17 17 15 15 14 16 17 18 18 17 20 22 22 22 22 21 21 21 22 22 23 23 22 21 20 20 21 21 21 20
21 20 18 19 19 16 15 15 17 14 16 15 16 17 16 17 14 13 14 17 20 21 19 19 20 21 22 23 22 21 21 21 21 21 22 22 22 21 20 19 20 20 20 19
21 19 20 19 19 19 16 18 15 17 12 13 14 14 15 15 15 16 17 19 25 26 22 19 21 24 24 24 23 22 21 21 22 22 22 22 21 21 21 19 19 19 19 18
20 24 24 27 23 20 23 20 18 17 17 17 17 16 17 16 17 19 23 25 26 26 28 29 28 29 29 28 26 25 23 22 22 22 22 22 22 21 21 20 19 19 19 18
24 31 29 27 29 26 25 24 22 20 17 17 17 19 22 20 22 27 29 29 29 27 25 26 28 28 29 30 32 31 27 25 25 23 23 22 22 22 21 20 20 19 19 18
35 33 27 25 23 32 32 32 30 31 31 27 24 24 25 24 25 26 22 16 17 17 19 21 24 26 27 28 29 28 28 27 27 26 24 23 22 22 22 20 20 19 19 18
35 33 29 24 23 28 28 30 32 32 27 26 26 27 28 26 24 22 19 11 10 12 16 19 22 25 28 28 29 28 27 26 27 27 26 24 23 23 22 22 21 19 19 18
33 28 29 28 31 31 29 28 27 26 27 24 24 25 25 20 21 21 22 17 15 13 19 24 26 28 31 28 28 27 28 28 27 27 26 26 26 24 23 23 23 20 19 19
31 25 26 23 22 19 19 23 24 23 22 23 24 22 19 19 18 15 17 21 15 17 22 27 24 30 26 25 27 27 28 30 28 27 27 27 27 26 25 24 24 22 20 19
26 25 21 16 17 18 15 15 19 19 16 20 16 18 20 15 12 4 10 22 13 22 25 28 23 23 22 24 28 26 29 31 29 28 27 27 25 25 26 25 24 22 20 19
22 21 21 16 16 8 10 21 22 22 20 21 20 19 19 17 13 10 23 11 15 18 25 23 18 18 22 22 25 26 29 27 29 28 27 27 25 23 24 23 23 22 20 19
23 20 17 13 9 7 11 15 13 14 17 17 11 13 19 18 17 2 6 12 19 21 26 18 17 19 21 21 23 27 21 24 27 28 28 27 25 23 22 22 22 21 20 19
15 22 17 13 9 7 15 9 13 19 8 10 12 16 19 17 5 3 7 17 19 22 18 13 13 15 20 20 24 19 19 21 20 23 26 26 24 22 20 19 20 20 19 20
-1 5 12 10 7 2 12 9 9 5 -0 2 13 17 16 15 10 9 16 16 19 20 11 10 9 9 10 20 14 13 17 16 17 20 19 25 26 23 21 19 18 17 17 17
2 -0 -1 -0 -2 -5 12 7 0 -1 4 5 6 15 18 15 15 18 15 13 15 10 9 8 7 6 8 10 10 11 10 10 13 15 17 20 21 24 21 19 17 16 17 17
4 2 -0 -3 -5 3 13 10 9 11 9 10 16 19 17 16 15 15 12 12 12 8 8 7 9 9 9 9 8 8 7 8 9 10 11 13 16 21 21 20 19 17 17 15
7 7 5 6 6 6 7 9 9 9 10 11 15 18 18 16 14 12 10 10 8 8 8 8 8 7 7 6 6 6 5 5 6 6 6 7 10 14 21 19 19 18 17 16
10 9 8 7 8 8 10 10 9 10 11 14 15 14 12 11 10 10 9 8 7 6 5 6 6 6 4 4 4 3 2 2 2 3 3 4 7 10 16 19 18 17 18 18
12 9 8 7 7 6 6 8 12 12 13 12 10 10 10 9 8 6 4 4 4 4 4 3 2 2 1 1 0 0 0 -1 -1 -0 -0 1 4 7 11 18 17 19 20 19

GFSCGP_sfc_30mbdewp_006.txt.gz
Dewpoint
27 21 18 17 18 16 16 14 14 15 16 17 15 15 16 17 17 17 17 18 18 19 20 19 21 22 24 25 28 29 30 35 44 47 48 49 49 49 48 47 45 43 41 36
23 20 21 22 21 20 18 17 16 17 18 18 16 16 16 17 18 18 18 18 19 18 17 19 22 24 25 25 27 28 29 31 40 44 46 46 46 46 46 46 44 43 40 36
19 20 23 22 20 19 19 18 17 16 18 18 17 17 17 14 17 17 17 18 17 19 21 21 23 25 26 26 27 27 28 29 33 40 42 43 38 40 42 43 43 41 39 36
23 24 22 22 20 20 18 20 20 19 17 17 16 16 17 16 14 15 15 16 18 21 22 24 25 26 27 26 27 27 28 27 29 35 37 39 36 35 36 37 38 39 38 35
17 22 23 22 21 22 17 20 18 19 17 18 16 14 15 15 13 13 15 19 24 23 25 27 29 30 29 29 28 26 25 25 27 30 32 33 33 33 32 31 34 35 35 34
22 24 21 19 21 21 21 19 19 21 18 14 15 14 12 11 12 15 19 25 25 27 27 27 29 30 29 29 28 27 25 24 24 26 28 29 30 30 30 29 30 31 32 32
23 21 23 21 19 22 20 19 20 16 15 13 16 14 13 14 18 21 24 25 25 26 27 27 27 28 29 28 28 27 26 26 25 24 24 25 27 27 27 27 27 29 29 29
23 24 23 22 22 25 21 21 18 16 16 15 18 14 15 21 26 26 26 24 23 23 25 26 27 27 26 26 26 26 26 27 27 27 26 25 24 24 24 25 26 27 28 28
28 26 22 22 21 21 20 17 21 18 19 17 15 15 19 23 26 26 23 20 19 20 21 23 26 27 25 25 24 24 23 24 27 27 28 27 26 25 24 24 25 25 27 27
30 30 32 27 21 21 19 21 18 18 16 16 14 13 14 19 26 24 20 17 16 18 20 21 22 25 24 24 24 22 24 23 22 25 27 28 28 27 26 25 25 24 25 27
30 31 28 27 25 22 21 18 18 18 19 20 19 17 22 26 27 22 17 15 16 16 18 20 19 23 25 23 24 21 20 22 22 22 24 26 26 26 27 27 26 25 25 25
30 29 28 26 29 26 25 25 24 23 21 20 20 19 27 26 23 19 12 13 14 15 13 15 20 17 24 18 20 22 20 21 23 22 23 24 24 25 25 26 28 27 26 25
35 33 27 25 26 31 29 29 28 26 30 27 24 24 26 25 23 21 21 17 16 16 7 10 21 16 14 14 15 15 18 18 23 20 23 23 26 24 22 23 26 28 28 26
36 33 29 23 21 24 25 27 28 28 26 24 24 23 23 27 24 21 16 15 18 11 8 9 17 17 12 13 10 11 11 14 19 18 20 21 23 24 23 22 24 26 28 28
33 29 29 31 32 32 30 30 28 26 27 24 23 23 24 26 24 17 8 4 15 2 3 7 11 19 15 11 9 9 8 12 18 15 17 19 21 22 22 23 24 25 26 27
30 26 24 22 23 24 25 25 25 23 22 21 20 18 19 15 13 10 3 1 13 0 1 5 9 14 17 12 9 11 10 11 20 19 19 21 24 24 19 18 21 23 23 24
27 26 23 18 20 19 19 21 19 17 16 14 11 13 17 10 9 6 5 5 11 2 4 7 10 11 18 17 11 11 11 13 22 21 19 21 20 20 17 16 18 21 20 21
24 24 24 17 18 10 11 15 15 13 15 19 18 16 15 9 5 14 11 11 10 4 6 8 11 12 16 15 11 10 13 16 19 20 17 18 18 16 15 14 14 20 19 19
24 21 18 14 12 10 9 8 11 13 9 21 18 9 5 7 17 11 12 12 12 7 9 14 15 16 15 10 9 11 13 12 16 16 12 14 15 15 12 11 12 15 17 18
15 21 16 11 8 1 -1 10 14 8 7 22 11 6 7 10 1 -0 4 7 9 7 14 15 15 13 11 8 7 9 9 10 10 11 11 11 12 12 10 10 10 11 15 17
7 14 13 12 9 8 13 15 15 5 6 18 14 11 10 8 6 7 10 12 11 16 17 15 14 11 8 6 9 9 9 8 9 11 11 11 10 9 8 8 8 9 10 11
-2 1 5 7 7 3 12 11 7 7 9 10 11 10 9 10 10 11 12 13 17 17 14 11 9 7 6 6 9 8 7 7 9 8 7 6 7 6 6 5 6 6 8 9
6 5 3 4 3 6 13 13 11 10 12 11 11 11 11 12 11 11 13 17 15 12 10 10 11 9 6 7 7 6 6 5 4 4 2 2 2 2 3 3 4 5 6 7
9 9 7 8 6 7 7 8 7 8 10 11 11 13 13 13 14 17 15 13 10 10 9 8 7 6 4 4 3 3 2 2 0 -1 -1 -1 -1 -1 -0 0 1 1 3 5
8 9 9 9 9 9 10 10 10 11 12 11 14 15 14 13 12 10 9 9 6 5 4 4 3 2 1 1 0 -0 -1 -1 -2 -3 -3 -3 -3 -3 -3 -2 -2 -1 1 3
11 10 9 8 7 8 8 9 11 11 11 14 13 12 11 9 7 4 4 3 2 2 1 0 -0 -0 -1 -1 -2 -2 -2 -2 -2 -2 -3 -4 -4 -4 -4 -4 -4 -3 -1 2

GFSCGP_sfc_30mbdewp_009.txt.gz
Dewpoint
26 21 19 19 20 20 18 17 17 18 19 19 18 17 18 19 18 16 17 16 18 18 22 25 27 28 28 29 29 29 29 31 37 45 48 50 51 51 52 52 51 49 48 45
24 20 21 21 22 21 19 18 17 19 19 19 18 19 20 20 17 17 17 17 21 22 24 26 28 29 28 28 28 29 29 31 33 42 45 47 48 49 50 50 50 49 47 44
22 24 24 22 22 20 19 18 19 19 19 21 20 18 19 20 18 16 17 20 23 24 26 28 29 29 30 29 28 27 28 29 31 38 41 44 45 41 43 46 47 47 46 44
24 25 23 22 21 19 18 20 20 19 20 19 20 17 18 17 16 17 22 25 24 27 28 30 30 29 29 30 30 27 27 27 29 33 35 38 40 37 38 38 42 44 44 44
22 24 23 22 21 22 19 21 19 20 21 21 20 17 15 16 15 16 24 25 26 27 27 28 29 29 29 30 30 29 28 27 26 28 30 31 32 33 34 33 33 36 40 41
21 23 22 21 22 22 22 20 20 21 21 19 18 17 13 13 14 19 24 25 26 27 27 27 28 28 27 28 28 29 28 28 29 28 27 26 27 29 30 31 31 32 34 37
23 23 23 22 21 23 21 19 20 19 20 19 18 15 15 15 21 21 25 24 25 26 27 28 28 26 27 26 26 24 25 27 28 29 28 28 27 26 25 26 27 29 30 32
23 21 24 24 23 24 25 23 23 18 18 19 21 19 18 24 26 25 24 23 23 23 24 25 26 25 24 25 24 25 23 22 25 27 28 29 29 28 27 27 27 27 28 30
25 23 25 24 24 23 23 20 23 21 22 22 20 20 19 26 25 23 22 20 20 22 22 22 23 26 24 24 22 20 22 21 21 22 25 27 26 27 28 29 29 28 28 27
29 27 29 27 23 24 25 31 30 28 22 20 15 14 12 16 24 23 21 20 20 20 20 20 19 24 23 22 23 21 19 19 20 20 21 22 23 23 23 27 29 29 29 28
30 30 26 28 25 23 22 21 21 20 19 17 15 15 17 23 26 23 20 18 18 18 16 17 20 17 21 17 18 19 19 18 19 18 20 22 22 21 19 19 22 27 29 29
30 31 29 25 25 28 29 25 24 22 23 21 22 24 24 26 26 23 18 17 17 18 8 8 18 11 11 12 13 13 13 16 18 15 18 20 22 24 22 19 19 24 24 27
34 32 26 23 20 31 30 26 27 27 27 24 23 21 25 26 25 24 23 18 18 17 8 5 11 11 6 8 7 7 7 10 15 15 15 17 20 22 20 20 21 22 23 24
35 28 26 21 18 24 27 27 30 31 27 26 24 22 24 25 26 27 23 19 20 17 8 6 9 11 12 8 7 5 5 4 10 14 13 16 19 19 19 19 19 20 23 22
32 26 26 26 26 25 25 24 23 23 24 21 21 23 25 25 23 23 27 13 10 13 2 3 6 8 12 12 9 8 7 9 10 11 16 15 16 18 21 22 19 18 21 22
26 23 23 22 22 21 20 20 20 21 22 22 21 18 17 16 15 15 14 5 2 11 1 2 6 8 9 12 15 11 9 10 12 16 19 19 20 20 20 20 18 16 16 19
22 21 18 14 15 16 15 16 17 17 17 16 13 17 19 14 11 10 10 7 -1 5 2 3 7 8 10 12 16 14 10 12 16 19 21 22 20 19 18 18 16 14 13 14
21 20 19 15 16 10 10 8 11 11 12 15 20 20 16 9 4 4 8 8 6 6 6 4 9 11 12 14 13 11 13 15 16 17 16 19 18 15 16 15 14 12 11 12
18 18 16 14 12 10 11 10 8 8 8 13 19 8 3 4 5 3 2 5 7 7 7 8 14 15 15 13 11 11 12 12 12 12 12 12 13 14 14 14 13 11 11 11
10 15 15 13 10 3 -0 7 12 9 5 22 13 8 8 6 3 2 4 8 8 7 7 12 17 16 14 11 9 11 11 11 10 11 11 11 12 12 12 12 11 11 11 10
7 13 13 12 11 8 10 15 11 7 6 23 16 12 10 8 8 9 10 10 10 13 16 18 17 13 11 9 10 10 10 8 8 9 9 9 9 9 8 8 9 9 8 8
-3 0 6 8 6 1 12 13 8 9 16 15 11 9 9 10 11 11 10 10 12 18 17 14 12 11 9 7 9 8 6 6 7 6 5 4 4 3 4 4 3 4 4 4
4 2 2 5 1 6 11 10 12 14 16 14 11 11 11 11 11 11 11 13 17 14 12 13 12 10 8 8 7 6 5 5 4 3 1 0 0 0 0 0 0 0 1 2
8 7 6 8 6 7 8 9 9 10 11 11 11 13 13 13 13 13 16 15 13 12 10 9 9 8 7 5 5 4 3 3 2 0 -0 -1 -1 -1 -1 -1 -1 -1 -1 -1
10 7 8 9 9 9 10 9 10 11 12 12 13 13 14 14 14 13 11 12 9 7 6 6 6 4 3 3 2 2 2 1 0 -0 -1 -2 -2 -2 -2 -2 -2 -2 -0 0
11 9 8 7 7 7 7 8 10 10 11 13 14 16 14 12 11 8 7 6 4 4 4 3 2 2 2 1 1 1 1 1 -2 -3 -4 -4 -4 -4 -4 -4 -4 -3 -1 0

GFSCGP_sfc_30mbdewp_015.txt.gz
Dewpoint
27 23 17 17 21 20 19 20 20 20 21 20 19 21 21 20 20 21 24 26 29 29 29 30 31 31 30 29 29 28 30 33 38 43 47 48 50 50 50 53 53 54 55 54
25 22 22 22 23 23 22 21 20 20 21 19 20 20 21 21 22 22 25 28 29 29 29 29 30 30 30 29 30 30 29 29 31 36 42 43 42 42 43 44 49 50 51 51
23 23 26 24 23 23 23 22 21 20 21 22 20 20 20 22 24 26 27 29 29 29 28 28 28 28 29 29 29 30 30 30 30 31 32 35 37 37 37 40 40 38 45 47
25 25 24 24 25 25 22 23 22 21 19 17 23 18 20 21 23 26 27 27 28 28 28 27 27 27 27 27 29 29 30 30 30 30 29 29 29 29 32 33 33 33 38 43
27 25 24 23 24 24 21 21 19 19 18 20 20 19 21 22 23 25 26 27 27 28 27 27 27 27 27 25 25 27 28 29 30 30 30 30 29 29 30 30 29 30 31 35
25 23 23 23 23 23 23 19 20 21 21 18 20 21 19 17 21 25 26 27 28 28 27 27 27 26 26 26 24 23 24 26 28 27 27 29 29 29 29 30 30 30 30 31
25 24 24 22 20 23 20 19 21 18 18 16 24 22 21 22 24 25 26 27 28 27 26 25 25 25 23 23 23 22 22 22 23 24 24 24 24 27 27 27 28 29 30 30
26 25 23 23 22 24 21 23 22 17 16 16 23 19 20 24 25 26 26 26 26 25 26 26 24 24 23 21 21 20 20 21 22 22 21 21 21 20 21 23 24 25 25 27
30 26 25 24 24 26 25 23 27 24 24 22 22 23 25 23 23 24 24 23 23 23 23 26 25 24 24 22 20 20 19 19 21 22 23 22 21 19 17 18 20 22 23 22
29 26 29 26 27 26 26 30 26 27 19 18 20 21 21 24 22 22 21 22 22 22 20 19 23 20 20 20 20 19 19 18 17 20 22 23 23 23 21 19 19 19 21 22
30 30 27 28 27 25 24 24 28 28 26 20 16 16 23 25 24 22 21 21 19 16 15 20 14 17 17 16 14 16 17 17 16 15 17 20 21 21 21 20 20 19 20 21
32 31 27 26 28 29 28 26 26 23 22 22 22 21 25 24 24 22 20 19 19 17 9 17 13 12 13 10 11 10 14 15 16 16 15 15 18 18 19 18 19 19 18 19
33 30 25 22 20 31 29 28 27 26 28 24 22 20 25 25 23 21 21 20 18 18 8 8 12 8 8 8 7 7 8 12 13 14 15 14 15 16 17 18 19 20 20 19
33 32 24 18 13 24 23 24 24 24 21 20 21 21 21 21 26 26 26 26 19 19 11 7 8 9 11 11 9 9 9 10 12 13 15 14 16 18 19 20 20 21 21 20
31 27 28 27 26 26 25 24 24 23 23 22 17 19 20 20 18 16 16 24 23 19 13 9 8 9 8 9 12 12 11 11 12 12 13 13 14 16 19 18 19 19 20 17
29 22 22 19 21 21 20 20 20 20 20 21 20 17 15 16 14 13 15 11 8 11 12 7 7 8 9 9 11 14 15 15 15 14 14 16 14 16 18 18 18 18 16 14
22 22 20 15 18 17 12 11 10 10 8 11 11 14 19 16 14 9 8 9 8 1 4 4 5 7 10 11 14 15 14 14 14 13 12 12 15 16 16 17 17 13 11 12
22 18 17 11 13 6 2 10 10 11 12 13 15 15 18 15 6 6 6 6 7 9 9 8 8 8 14 16 15 14 14 12 11 11 12 13 14 15 14 11 10 9 9 9
26 19 14 8 10 7 7 7 6 4 1 11 5 14 14 7 7 5 6 9 8 8 9 11 12 14 16 15 13 11 10 10 10 10 12 12 12 10 8 7 7 7 7 6
19 23 16 13 10 3 5 9 10 9 3 7 10 13 7 10 5 6 9 10 10 11 11 15 18 17 13 11 11 9 9 9 8 10 10 8 8 7 6 5 3 3 3 3
9 13 15 13 11 12 12 13 10 2 -1 15 17 10 11 9 10 10 12 13 13 13 14 18 15 12 10 11 9 6 6 5 8 8 7 6 5 3 2 2 2 1 1 1
2 2 6 9 9 7 12 11 4 3 19 16 13 11 11 12 13 14 13 13 13 16 17 14 13 12 10 10 5 3 4 6 6 5 4 3 1 1 2 1 0 0 -0 -1
-3 1 -3 3 4 9 15 6 10 16 12 16 13 12 13 14 15 13 12 13 15 16 14 12 10 8 8 7 6 3 4 4 4 2 0 -0 1 1 0 -1 -2 -2 -3 -2
6 9 3 4 4 7 9 11 11 12 13 14 15 15 15 13 13 13 13 14 15 14 12 9 7 5 3 5 5 3 3 3 1 -1 -0 0 -0 -1 -1 -2 -3 -3 -3 -3
8 9 7 8 8 8 10 11 11 12 13 13 13 13 12 13 13 14 14 16 15 12 9 6 4 2 2 3 2 1 1 0 -1 -0 -0 -0 -1 -2 -2 -3 -3 -2 0 1
11 10 8 7 7 8 8 9 11 11 11 12 13 13 14 15 14 14 14 14 10 8 6 3 2 1 -0 -1 -1 -2 -2 -2 -1 -1 -1 -1 -1 -2 -3 -3 -4 -2 1 3